Location: Lugrin
(46.4033°N, 6.6674°E)
Time: 09:10:42
(UTC+00:00)

N. Korean satellite - Pass Details

Date: 01 December 2020
Orbit: 453 x 502 km, 97.2° (Epoch: 16 January)

Event Time Altitude Azimuth Distance (km) Brightness Sun altitude
Rises 04:08:43 0° 28° (NNE) 2,564 10.6 -28.2°
Reaches altitude 10° 04:11:21 10° 49° (NE) 1,687 9.8 -27.7°
Maximum altitude 04:13:48 17° 92° (E) 1,304 9.5 -27.3°
Drops below altitude 10° 04:16:17 10° 135° (SE) 1,693 9.9 -26.9°
Sets 04:18:55 0° 156° (SSE) 2,576 10.6 -26.4°
